Dewpoint
3 2 2 3 3 1 2 0 -1 1 0 -2 -2 -1 -0 1 3 6 8 12 12 13 14 12 12 10 10 12 11 12 13 14 14 15 14 14 14 13 13 12 10 8 8 9 12 11 9 8 7
4 3 4 3 2 3 1 -1 1 -2 -1 -1 -1 -1 -1 3 7 12 12 10 13 15 15 14 12 9 14 12 13 14 14 14 14 15 14 13 13 12 10 7 2 -0 6 9 12 12 9 8 9
4 4 3 3 3 3 1 -1 -2 -2 -1 -1 -1 -0 1 4 10 13 11 10 14 15 15 16 13 13 14 13 13 14 13 14 14 14 13 10 11 9 5 -0 -3 3 7 7 13 13 12 9 9
6 5 3 4 4 2 -0 -2 -2 -2 -1 -1 -1 -1 2 7 10 13 9 12 15 15 16 14 13 12 13 13 14 13 13 14 14 13 7 2 6 3 -8 -8 5 6 5 10 13 13 12 10 10
6 4 5 6 4 1 0 -2 -1 -1 -1 -2 -3 -2 -1 10 8 10 10 12 15 15 16 14 14 12 14 14 13 13 14 13 12 12 7 1 -3 -9 -9 0 10 6 10 10 12 13 12 10 10
5 4 5 6 4 1 1 -0 -1 -1 -2 -2 -4 -2 0 6 10 10 12 14 15 15 16 15 13 13 14 14 13 14 14 14 14 13 9 -0 -8 -8 -8 4 12 10 11 11 12 12 9 10 8
4 4 4 2 2 2 2 0 -0 -2 -2 -2 -3 -2 1 10 9 10 15 15 15 14 15 16 14 14 14 14 13 14 14 13 14 13 10 3 -6 -7 -8 -6 4 10 12 13 12 11 10 9 -2
2 3 3 2 2 2 -0 1 -1 -1 -2 -3 -2 -3 -1 10 9 10 11 15 15 12 15 16 15 14 14 12 11 13 14 14 14 13 12 5 -4 -6 -7 -6 2 7 10 11 11 9 8 -1 1
3 2 1 2 2 0 -1 -0 -1 -2 -3 -3 -3 -1 5 5 9 11 12 15 14 12 15 15 15 14 14 13 13 13 13 11 13 13 11 7 0 -5 -5 -5 -1 2 7 8 7 1 -2 1 3
1 1 -1 -3 -1 -0 -0 -2 -2 -1 -3 -2 -2 1 3 6 6 11 13 14 13 13 12 14 14 14 13 12 12 12 12 10 11 9 7 10 8 7 4 -4 -3 -0 3 2 -1 -1 2 4 6
2 2 -1 2 1 0 0 -0 1 -1 1 -3 -2 2 9 6 8 14 14 13 13 12 12 11 12 14 13 12 11 12 12 12 12 12 11 11 9 2 -2 -1 -1 -1 -1 0 1 2 4 7 9
4 2 1 1 3 3 2 1 1 1 -2 -0 2 3 5 12 13 15 16 14 12 11 11 11 11 10 13 12 8 9 8 8 10 11 11 11 9 9 9 7 6 3 2 9 9 10 9 5 6
5 3 2 1 3 3 3 2 0 1 1 2 2 1 3 6 13 14 15 15 14 13 11 12 11 10 12 13 12 11 8 4 4 4 6 5 9 10 11 11 7 5 8 9 9 9 8 8 8
4 4 3 2 2 3 2 2 2 1 1 1 2 2 2 2 4 12 14 14 14 12 12 11 12 12 12 14 13 12 11 9 6 5 3 -1 6 9 11 11 11 8 3 7 9 9 7 7 7
4 5 3 3 2 2 2 2 2 0 0 -1 -0 -0 0 1 2 2 5 11 14 14 13 11 11 12 13 13 13 13 12 11 10 8 6 4 2 5 8 11 11 10 7 5 7 8 7 7 8
5 4 6 2 2 2 1 -1 -2 -1 -1 -2 -2 -2 -2 -1 1 1 2 3 3 7 12 14 12 12 12 12 13 12 12 11 11 10 10 8 6 5 4 6 10 11 11 8 6 6 6 8 8
5 4 3 3 2 1 2 -1 -3 -1 -1 -1 -1 -1 -1 -1 -1 -1 -0 1 1 1 1 4 9 10 11 11 12 12 11 11 11 11 11 11 10 9 7 7 7 9 11 10 8 6 6 8 9
5 4 3 2 3 2 2 1 1 1 1 0 -1 -1 -1 -1 -1 -2 -1 -2 -3 -2 -0 -0 2 1 4 10 11 12 11 9 10 10 10 11 11 11 10 10 10 8 10 10 9 8 7 8 9
-1 3 3 2 0 4 3 2 1 -0 -0 -1 -2 -2 -2 -2 -2 -1 -2 -3 -3 -3 -3 -2 -2 -2 5 7 7 11 10 7 6 9 10 10 10 9 11 11 11 11 8 9 10 9 8 8 10
2 3 2 2 1 1 1 2 0 -1 -1 -1 -2 -2 -2 -2 -2 -3 -3 -2 -2 -2 -2 -2 -2 -3 -2 9 2 6 10 10 8 8 8 8 7 8 9 9 10 10 9 9 9 10 9 9 10
3 2 2 2 0 -0 0 2 1 -4 -5 -5 -5 -4 -3 -3 -3 -4 -6 -6 -5 -4 -2 -2 -2 -2 -2 -1 8 9 7 6 5 5 6 8 9 9 8 9 9 9 10 9 6 8 10 9 9
7 2 2 2 3 4 -0 1 -1 -4 -3 -3 -2 -1 -1 -1 -1 -1 -2 -4 -5 -5 -5 -4 -3 -3 -2 -2 4 10 7 5 2 2 4 5 4 7 9 8 9 9 9 9 8 8 9 10 8
7 1 2 2 3 3 2 2 -1 -4 -1 -1 -1 1 1 1 0 0 -1 -2 -3 -4 -4 -4 -5 -4 -3 -3 -2 6 10 9 4 4 3 2 2 1 6 7 9 9 10 9 8 8 9 10 9
3 1 0 1 2 6 1 2 -2 -4 -4 -1 -1 1 2 2 2 1 -1 -1 -2 -2 -3 -4 -4 -4 -5 -4 -3 -1 8 10 10 10 8 2 1 1 2 4 6 8 9 9 9 9 10 9 10
4 6 7 7 6 4 -0 2 -3 -4 -4 -2 -0 1 2 3 3 3 1 -0 -1 -1 -2 -3 -3 -3 -4 -4 -5 -3 -3 4 10 8 10 8 9 4 2 4 5 6 7 9 9 9 9 9 10
3 3 4 4 4 0 0 1 -3 -5 -5 -3 -2 -1 2 3 4 3 3 2 1 1 0 -1 -2 -3 -3 -3 -4 -4 -4 -4 -2 -2 5 9 9 4 4 6 8 9 9 9 7 9 9 9 9
2 5 -2 2 0 1 -2 -2 -4 -4 -4 -3 -2 -1 2 4 4 4 3 3 3 2 2 2 1 0 -1 -3 -3 -3 -4 -4 -3 -3 -3 -2 -1 -0 0 2 4 6 9 10 10 10 10 9 10
1 -1 3 4 4 2 -3 -3 -2 -1 -2 -2 -1 -1 1 4 4 3 3 3 3 3 3 3 3 2 2 1 -2 -2 -3 -3 -4 -4 -5 -5 -6 -6 -6 -5 -3 -0 3 6 9 10 10 10 10
1 2 1 -0 0 -1 -4 -7 -6 -2 -2 -3 -3 -2 1 4 4 3 3 3 3 4 4 3 3 2 2 1 0 -1 -1 -2 -3 -4 -4 -4 -4 -4 -4 -4 -2 2 7 9 9 9 9 9 9
-0 1 -1 4 4 1 2 -4 -6 -3 -4 -4 -4 -2 2 4 2 3 4 4 4 3 3 3 3 3 3 2 1 1 0 -1 -2 -3 -4 -4 -4 -4 -2 -0 3 6 7 8 8 8 8 8 7
Wind_Speed
14 10 6 3 6 5 11 6 1 3 4 3 4 7 2 8 3 1 1 13 15 22 21 22 19 18 19 17 15 13 11 9 10 10 9 9 8 7 6 6 6 5 6 9 8 8 8 7 6
15 11 7 4 7 10 11 9 7 7 2 8 3 6 8 1 3 4 1 12 18 21 20 20 20 21 19 17 17 14 11 9 10 9 10 9 7 6 5 4 4 5 11 12 11 9 8 7 5
16 15 9 5 9 15 11 9 9 4 3 2 1 3 2 1 1 1 2 13 21 19 19 19 20 20 19 17 15 14 11 10 10 10 8 8 7 5 4 3 3 7 14 16 11 10 7 4 4
11 8 5 10 16 17 15 2 4 8 4 1 6 4 2 2 1 2 6 16 19 18 17 20 20 19 19 17 16 14 13 12 11 8 6 6 8 6 4 6 7 10 16 17 12 10 8 2 1
14 9 10 15 22 17 13 7 8 9 2 1 7 2 3 2 2 6 8 16 18 18 17 19 18 19 18 16 16 15 13 11 9 8 6 8 7 7 7 8 9 13 15 17 12 10 7 4 1
12 14 12 18 23 20 14 16 16 12 7 5 5 5 1 3 2 9 11 15 16 17 18 19 18 19 18 16 16 16 14 11 10 10 5 6 7 7 8 11 12 15 13 13 12 11 7 4 2
17 11 21 20 21 19 18 20 17 14 10 9 5 5 1 1 6 10 13 14 15 17 16 17 19 19 18 16 16 15 12 11 11 9 7 6 7 7 8 9 12 18 15 16 14 10 7 5 5
18 9 21 20 18 23 18 14 12 20 19 6 5 6 6 2 10 11 15 14 14 18 16 15 16 16 17 17 17 17 15 14 13 10 9 7 8 8 8 10 12 14 15 14 12 10 8 6 6
12 9 17 23 21 17 9 15 12 8 11 10 8 6 3 3 12 13 16 16 17 18 17 16 15 15 15 13 14 16 17 16 15 14 12 10 9 9 9 11 12 13 14 13 12 10 8 7 7
13 14 21 14 12 12 12 15 14 10 14 14 12 9 7 7 10 16 18 19 19 19 21 18 17 15 15 14 13 14 13 13 14 15 13 11 11 10 11 11 12 12 13 12 11 10 9 8 6
15 17 12 6 9 8 13 12 10 12 12 15 16 8 4 9 12 18 18 17 18 17 20 20 19 16 15 14 14 14 14 13 14 14 14 13 13 13 12 13 13 12 12 11 11 11 9 9 7
11 20 10 7 7 8 9 10 11 13 5 9 8 4 1 5 13 17 16 16 16 17 17 18 19 20 16 14 14 14 15 14 14 15 15 15 14 14 12 12 13 13 13 12 11 9 10 10 8
16 6 16 11 6 5 7 9 10 14 11 6 6 6 3 3 10 14 16 16 15 17 19 19 20 20 18 17 16 15 15 16 15 15 16 17 16 16 14 13 14 14 13 12 12 11 12 11 10
11 19 5 18 12 5 7 8 7 11 16 13 11 12 10 9 7 11 16 19 19 18 18 19 20 20 22 19 18 16 16 16 17 17 16 18 18 17 16 15 15 15 16 14 13 13 13 13 12
6 12 18 15 12 10 11 16 18 17 13 12 12 15 15 13 11 13 13 16 17 17 16 18 18 19 21 23 21 19 18 17 18 18 18 19 20 19 18 16 16 17 17 17 16 16 16 16 15
16 7 10 15 21 7 12 21 2 10 26 24 22 21 20 20 18 17 16 16 15 16 17 18 20 21 21 22 23 24 23 20 20 19 20 21 21 21 22 21 18 16 18 19 18 19 19 18 16
15 13 20 8 21 14 17 10 11 8 9 13 12 15 20 23 22 24 23 22 20 18 19 20 21 24 25 23 24 24 24 24 23 23 22 22 23 23 24 23 21 20 20 20 21 21 21 21 19
21 22 13 16 9 20 15 17 4 8 6 10 12 13 15 18 20 19 19 23 29 29 28 26 25 25 25 28 27 27 27 27 28 27 26 25 25 25 25 25 24 23 23 25 24 25 24 23 22
12 17 10 14 6 12 16 12 15 17 17 17 19 19 18 17 16 19 22 26 26 29 31 31 29 28 25 28 31 34 34 34 35 35 32 29 28 27 28 28 27 27 29 28 28 27 27 27 27
12 16 14 3 9 7 6 9 11 14 19 18 18 18 18 15 15 17 22 23 26 27 28 29 30 32 31 27 34 35 37 40 39 38 38 36 33 31 32 30 30 29 30 30 30 32 32 31 31
14 15 13 6 7 3 2 8 11 5 2 3 1 2 2 3 4 6 14 21 25 27 29 30 30 29 31 32 28 30 32 34 37 37 36 36 38 38 35 33 32 32 31 33 35 36 36 36 34
8 6 11 11 10 4 3 3 4 5 7 7 8 7 5 5 6 6 5 1 8 16 24 29 32 32 34 33 29 27 34 37 40 38 36 36 36 37 39 37 36 36 34 35 36 37 38 38 39
4 7 10 6 4 1 5 4 7 8 9 9 8 7 7 6 7 9 10 11 8 4 3 11 21 29 32 31 32 27 28 28 33 36 36 36 37 37 35 39 38 39 39 38 39 40 40 42 42
10 9 10 6 2 3 5 4 8 8 9 8 5 6 6 7 7 7 10 10 9 8 6 4 3 11 22 29 29 28 24 24 24 28 32 37 39 39 38 39 39 39 42 40 41 42 42 41 44
6 10 4 3 3 1 1 4 4 8 4 8 6 5 5 6 7 7 7 6 6 6 5 4 3 1 6 13 23 28 28 25 23 25 23 25 28 32 33 34 36 37 40 43 43 42 43 43 45
14 2 3 5 6 5 3 5 4 2 6 7 2 1 3 5 7 8 8 7 6 7 7 6 5 5 6 6 9 14 21 25 26 27 25 24 24 29 29 29 30 31 32 36 40 43 43 43 43
5 3 2 5 2 2 4 3 2 7 10 5 2 3 3 5 7 8 8 8 8 9 10 11 11 11 11 12 13 12 13 14 15 17 18 19 21 22 24 25 27 28 29 30 34 41 42 43 42
1 8 3 1 5 4 5 4 6 12 10 6 4 2 2 3 6 8 8 8 7 8 9 9 9 11 13 13 14 16 16 16 16 17 19 20 22 24 24 25 26 26 26 29 30 33 38 38 35
4 2 2 1 2 2 4 3 7 17 13 9 5 1 0 2 5 7 7 6 5 4 4 4 6 7 7 8 10 12 15 16 16 17 18 20 21 24 25 26 27 26 24 24 26 28 31 31 31
1 2 3 3 4 1 1 3 6 15 10 2 5 2 1 0 4 5 5 4 2 2 4 5 5 6 8 6 5 4 5 7 9 12 15 18 21 24 25 26 24 23 22 21 22 25 27 27 27
Wind_Direction
212 201 195 203 228 238 232 221 230 184 193 155 301 237 247 309 263 17 288 179 168 162 169 169 168 170 170 176 179 183 184 190 193 187 200 213 218 225 243 255 252 224 182 160 147 140 116 102 68
199 184 181 206 237 221 222 222 215 216 120 320 268 232 245 298 267 315 100 184 161 160 166 168 164 163 167 176 175 172 177 187 195 194 196 206 216 235 253 252 225 184 171 168 167 160 125 108 67
191 178 201 217 229 230 233 211 231 229 291 343 269 239 261 50 345 144 252 168 156 160 163 172 163 163 168 174 172 176 177 186 181 191 192 212 220 232 239 226 172 166 157 168 173 172 155 102 61
182 189 226 228 223 228 229 200 170 178 165 327 337 224 247 271 34 165 154 157 159 161 164 173 169 169 172 177 174 177 177 183 186 184 187 185 187 194 176 162 137 163 156 160 167 177 173 141 62
178 202 219 227 233 225 226 214 160 158 157 249 337 335 302 326 273 168 155 159 162 162 169 172 176 176 173 177 182 179 190 191 187 181 179 162 162 159 157 143 133 146 151 165 174 182 189 189 245
185 217 219 220 226 222 224 216 232 240 245 263 289 294 283 289 180 165 160 165 167 167 170 178 178 179 178 182 188 189 197 194 195 194 208 159 155 152 155 149 150 147 153 169 181 190 202 209 221
218 207 224 228 228 222 220 217 220 230 240 242 262 259 164 136 200 178 160 164 173 172 170 175 178 183 187 188 193 196 197 195 202 204 223 182 169 162 164 165 160 167 173 181 188 201 206 220 185
214 233 228 227 228 234 209 198 224 229 243 239 208 229 201 191 206 189 170 167 176 186 179 177 181 185 191 202 214 194 196 197 208 217 211 195 184 173 171 169 166 172 181 185 197 207 216 196 177
191 220 222 215 223 220 200 209 207 208 215 199 209 243 214 231 204 198 176 176 185 190 183 185 186 189 191 193 200 197 204 206 205 217 220 196 193 183 175 180 180 182 185 195 204 205 191 182 178
201 217 220 222 218 215 181 209 192 188 199 210 210 227 259 229 219 202 191 192 194 195 190 188 190 192 194 198 202 200 210 205 207 214 219 193 193 188 182 188 187 188 193 201 204 197 188 182 185
212 225 199 209 198 183 171 192 187 198 199 205 206 202 238 225 208 204 205 202 203 202 200 204 198 195 198 203 198 200 202 202 203 205 203 197 196 202 198 196 193 196 198 201 204 203 197 195 192
220 227 249 206 172 166 170 181 201 208 187 185 161 149 181 208 205 205 207 210 211 212 211 208 212 210 204 207 213 214 214 212 209 207 207 204 201 201 199 199 200 201 203 203 199 200 206 207 208
223 199 216 221 164 164 141 190 217 227 202 186 223 254 221 220 221 213 212 215 215 216 215 215 214 213 211 214 217 219 223 227 227 224 217 214 209 209 206 208 210 210 210 208 208 207 213 214 220
208 222 203 225 216 215 228 220 217 228 235 234 235 246 245 240 229 221 223 223 222 220 221 226 222 220 219 219 222 223 229 231 231 232 227 225 217 217 213 215 216 219 219 215 213 213 216 221 226
193 206 225 232 221 229 237 255 228 233 234 229 227 241 246 243 234 229 228 227 228 231 230 235 234 231 227 230 234 232 233 235 234 236 235 233 228 228 227 219 222 225 225 222 219 219 221 224 224
200 221 196 214 217 195 187 250 228 233 229 238 243 243 244 248 245 243 237 235 231 229 228 231 244 244 239 236 237 238 236 239 238 239 241 241 237 236 236 232 226 225 223 225 225 227 227 227 227
199 210 214 197 209 199 205 246 219 250 205 223 232 235 241 250 249 245 243 242 238 240 244 242 238 247 248 244 243 245 246 247 244 241 242 245 242 239 237 236 233 229 225 223 229 229 228 229 231
196 211 206 206 181 207 215 236 201 191 225 245 246 247 245 246 251 250 252 251 249 246 245 246 243 243 248 249 246 246 245 247 247 248 246 244 246 243 242 239 237 231 227 229 228 233 233 232 233
210 196 197 219 187 199 223 232 233 250 268 263 260 258 255 252 260 256 252 247 246 243 243 244 244 244 239 242 245 245 243 242 246 249 248 249 249 249 247 242 240 233 232 229 231 237 236 232 230
184 192 197 123 194 213 176 233 233 234 246 259 265 262 263 265 264 265 259 253 251 249 246 243 242 242 242 236 244 245 246 244 247 249 247 246 248 246 248 246 243 236 233 228 231 234 236 232 230
200 200 182 188 155 174 252 248 221 188 201 206 149 193 219 267 285 277 256 249 247 245 242 241 240 239 237 238 237 241 239 243 243 245 249 250 246 245 246 244 246 243 238 238 238 237 237 235 234
172 233 169 145 179 197 228 187 141 121 115 130 115 103 86 66 60 55 62 189 240 244 240 236 233 232 233 235 233 233 241 243 245 246 246 244 248 247 244 244 243 245 243 243 244 241 239 237 238
119 146 138 146 136 190 197 242 121 146 136 127 111 88 71 60 63 62 71 78 78 83 242 244 242 238 235 235 236 236 240 245 251 250 250 253 255 254 248 250 246 246 246 244 246 244 238 238 239
135 91 86 87 114 218 159 249 161 178 160 141 117 82 62 52 55 62 71 72 67 62 58 57 236 238 237 236 235 236 237 242 245 247 252 255 257 257 254 251 251 249 248 249 248 249 245 244 239
185 148 112 146 190 218 158 201 59 151 167 145 120 89 53 42 43 44 47 48 48 43 38 28 27 307 251 243 240 241 245 245 244 248 250 254 259 262 262 261 259 259 255 253 252 251 250 247 244
177 269 177 161 184 138 145 220 140 264 173 156 184 119 53 44 34 27 16 4 348 343 337 327 310 286 270 253 243 242 244 246 250 250 251 253 257 264 266 266 265 264 261 253 252 254 253 252 248
177 201 28 105 67 181 169 190 154 131 153 193 176 142 73 35 20 13 357 339 322 311 312 310 305 293 282 267 260 255 254 255 256 256 258 259 262 264 268 268 267 265 263 261 259 250 249 249 246
227 130 162 320 154 202 185 207 146 169 162 149 137 117 85 16 7 0 353 341 325 315 309 304 304 304 294 285 271 261 256 255 255 254 255 256 257 258 260 264 266 263 262 262 260 256 250 249 246
137 182 63 69 311 210 165 141 154 162 148 119 73 43 244 2 1 352 352 346 334 334 330 315 304 306 311 301 286 274 263 259 258 257 258 261 265 268 269 268 268 268 264 261 258 254 247 243 239
285 202 196 240 183 29 11 94 176 155 149 112 11 340 217 35 12 17 30 40 16 14 12 359 344 321 293 307 333 322 290 275 267 267 270 272 273 274 274 270 267 265 262 256 252 245 236 229 223
Height
1530 1532 1534 1536 1536 1529 1523 1522 1520 1520 1521 1522 1523 1522 1518 1519 1512 1516 1516 1516 1519 1523 1526 1528 1531 1534 1537 1539 1541 1544 1545 1547 1548 1548 1549 1550 1551 1552 1552 1552 1553 1553 1554 1555 1555 1555 1556 1556 1556
1528 1531 1534 1534 1530 1528 1519 1516 1520 1518 1520 1522 1521 1521 1521 1514 1518 1517 1517 1517 1519 1524 1527 1529 1531 1534 1537 1540 1542 1544 1546 1547 1547 1548 1549 1550 1550 1551 1551 1552 1552 1552 1554 1555 1556 1556 1557 1558 1557
1526 1529 1531 1526 1522 1520 1517 1515 1515 1519 1522 1521 1520 1520 1518 1517 1518 1518 1515 1517 1521 1525 1529 1531 1532 1535 1538 1540 1543 1545 1546 1547 1548 1548 1549 1549 1550 1551 1552 1552 1552 1552 1554 1556 1557 1557 1558 1559 1559
1526 1530 1529 1520 1516 1513 1512 1515 1517 1520 1521 1521 1521 1517 1518 1517 1518 1517 1516 1518 1523 1527 1531 1530 1533 1536 1538 1541 1543 1545 1547 1547 1548 1548 1548 1549 1550 1551 1552 1552 1553 1553 1554 1557 1558 1559 1560 1560 1560
1523 1523 1517 1516 1510 1510 1514 1514 1518 1518 1520 1520 1520 1515 1517 1517 1516 1517 1518 1520 1524 1528 1531 1531 1534 1537 1539 1542 1544 1546 1547 1547 1548 1548 1549 1550 1551 1552 1553 1553 1554 1555 1556 1558 1559 1560 1561 1561 1561
1520 1516 1509 1508 1506 1506 1514 1515 1517 1518 1518 1520 1519 1517 1516 1516 1516 1518 1519 1522 1524 1528 1530 1531 1534 1537 1540 1542 1544 1546 1547 1547 1548 1549 1550 1550 1551 1552 1553 1553 1555 1556 1558 1559 1560 1561 1561 1562 1561
1510 1509 1501 1499 1500 1504 1509 1513 1514 1513 1515 1518 1519 1516 1516 1517 1516 1518 1520 1523 1525 1527 1530 1532 1534 1536 1539 1542 1544 1545 1547 1548 1549 1549 1550 1550 1551 1552 1553 1554 1554 1556 1558 1559 1559 1561 1561 1562 1561
1510 1507 1501 1496 1499 1500 1504 1511 1510 1513 1513 1516 1518 1513 1514 1517 1516 1517 1519 1524 1525 1526 1530 1533 1535 1537 1539 1541 1542 1544 1546 1548 1549 1550 1550 1551 1552 1552 1553 1554 1555 1556 1557 1558 1559 1560 1561 1561 1562
1508 1502 1496 1496 1500 1500 1504 1507 1509 1511 1512 1514 1515 1515 1516 1515 1515 1517 1519 1523 1523 1525 1530 1533 1536 1538 1540 1542 1541 1543 1545 1547 1549 1549 1549 1550 1551 1552 1553 1553 1555 1556 1557 1558 1559 1559 1560 1561 1562
1502 1496 1489 1492 1497 1500 1504 1504 1506 1509 1510 1512 1513 1513 1513 1515 1515 1516 1518 1520 1522 1524 1526 1530 1533 1536 1538 1539 1540 1543 1545 1545 1547 1547 1548 1550 1551 1552 1553 1554 1554 1555 1556 1557 1558 1559 1560 1561 1561
1499 1489 1490 1498 1501 1501 1503 1504 1505 1505 1507 1506 1510 1512 1512 1513 1514 1516 1517 1519 1520 1523 1525 1527 1529 1534 1537 1538 1539 1541 1543 1544 1546 1548 1548 1550 1550 1551 1552 1553 1554 1555 1556 1557 1557 1558 1559 1560 1561
1497 1496 1495 1498 1499 1500 1502 1503 1503 1504 1504 1508 1509 1510 1511 1512 1513 1514 1517 1518 1519 1521 1523 1526 1528 1530 1534 1536 1537 1539 1540 1541 1543 1545 1546 1548 1549 1550 1551 1552 1553 1553 1554 1556 1557 1558 1558 1559 1560
1495 1495 1497 1497 1499 1500 1501 1502 1502 1503 1506 1507 1508 1509 1511 1512 1513 1513 1514 1516 1518 1519 1521 1523 1526 1528 1532 1534 1535 1536 1537 1539 1541 1541 1542 1544 1546 1548 1550 1550 1551 1551 1553 1555 1555 1556 1557 1558 1558
1493 1495 1496 1497 1498 1501 1502 1503 1505 1502 1505 1505 1507 1508 1509 1510 1511 1513 1513 1514 1515 1516 1519 1521 1523 1525 1528 1531 1532 1534 1535 1536 1537 1538 1539 1541 1543 1545 1546 1548 1548 1549 1550 1552 1553 1554 1555 1556 1556
1493 1494 1495 1495 1497 1499 1502 1499 1493 1501 1502 1502 1503 1505 1506 1507 1509 1510 1511 1513 1514 1516 1517 1518 1521 1523 1525 1528 1529 1531 1532 1534 1534 1535 1536 1538 1540 1541 1542 1545 1545 1546 1547 1548 1550 1551 1552 1553 1554
1490 1493 1493 1488 1492 1497 1499 1483 1489 1493 1496 1497 1499 1501 1503 1504 1505 1507 1508 1508 1510 1512 1514 1516 1517 1520 1522 1524 1525 1527 1529 1530 1531 1532 1533 1535 1536 1538 1538 1540 1541 1543 1544 1545 1546 1547 1549 1550 1551
1485 1481 1485 1485 1486 1491 1494 1485 1487 1491 1493 1495 1495 1497 1498 1499 1500 1501 1502 1504 1505 1507 1509 1511 1513 1514 1516 1519 1521 1522 1524 1526 1526 1527 1529 1530 1532 1533 1534 1535 1536 1538 1539 1540 1542 1543 1545 1546 1547
1470 1475 1479 1481 1484 1486 1487 1487 1489 1491 1492 1492 1491 1493 1494 1494 1494 1496 1497 1498 1500 1502 1504 1505 1507 1509 1511 1513 1515 1517 1518 1520 1521 1522 1523 1525 1526 1528 1529 1530 1532 1533 1534 1535 1537 1538 1541 1543 1544
1461 1473 1480 1482 1483 1484 1483 1485 1486 1487 1488 1488 1487 1487 1488 1489 1490 1490 1490 1491 1492 1494 1496 1499 1501 1504 1506 1506 1508 1510 1511 1513 1515 1516 1518 1519 1521 1522 1523 1525 1526 1527 1528 1529 1532 1534 1535 1537 1539
1467 1471 1475 1486 1482 1484 1485 1484 1483 1484 1483 1484 1483 1482 1483 1485 1485 1484 1483 1484 1485 1488 1490 1492 1494 1498 1500 1502 1502 1503 1505 1506 1508 1510 1513 1514 1515 1516 1516 1518 1519 1520 1521 1523 1525 1527 1529 1532 1533
1466 1466 1471 1476 1486 1486 1484 1478 1475 1481 1483 1483 1481 1480 1481 1482 1480 1478 1477 1477 1477 1480 1483 1485 1487 1490 1493 1495 1498 1497 1498 1498 1500 1502 1505 1507 1508 1508 1509 1511 1513 1513 1515 1516 1518 1520 1523 1525 1527
1475 1470 1472 1478 1478 1475 1484 1466 1475 1479 1481 1481 1481 1481 1481 1480 1478 1476 1473 1472 1472 1473 1474 1476 1478 1481 1484 1487 1489 1490 1490 1491 1493 1495 1497 1498 1499 1501 1502 1503 1505 1506 1508 1509 1510 1513 1516 1518 1519
1477 1472 1473 1477 1478 1480 1482 1476 1472 1478 1480 1480 1482 1482 1481 1480 1478 1476 1473 1472 1472 1471 1471 1471 1472 1474 1477 1480 1482 1484 1485 1487 1488 1489 1491 1492 1493 1494 1496 1496 1498 1499 1500 1502 1503 1505 1506 1508 1512
1478 1479 1479 1480 1480 1485 1476 1478 1469 1472 1474 1479 1481 1481 1480 1479 1478 1476 1473 1473 1472 1471 1471 1470 1469 1469 1471 1473 1476 1478 1480 1482 1483 1483 1484 1485 1485 1486 1488 1490 1491 1492 1492 1494 1496 1497 1499 1500 1503
1480 1475 1482 1484 1484 1470 1489 1484 1466 1475 1476 1477 1479 1480 1480 1479 1477 1476 1473 1473 1471 1471 1470 1470 1469 1469 1469 1469 1471 1473 1475 1476 1477 1477 1478 1479 1478 1478 1480 1482 1483 1483 1485 1486 1488 1489 1492 1493 1495
1472 1466 1460 1467 1468 1464 1489 1474 1464 1477 1478 1479 1481 1480 1479 1478 1477 1474 1473 1472 1470 1470 1469 1468 1468 1467 1468 1467 1467 1468 1469 1469 1470 1471 1471 1472 1473 1473 1474 1474 1475 1475 1476 1477 1479 1481 1483 1485 1487
1469 1467 1472 1478 1487 1472 1462 1472 1472 1475 1477 1478 1479 1478 1478 1477 1475 1473 1472 1470 1468 1467 1466 1465 1464 1464 1464 1464 1465 1465 1465 1465 1465 1466 1466 1467 1467 1468 1468 1468 1468 1468 1469 1469 1471 1472 1474 1476 1478
1467 1472 1472 1475 1471 1464 1464 1463 1455 1473 1473 1476 1477 1475 1476 1476 1474 1471 1470 1468 1466 1464 1463 1462 1461 1461 1461 1461 1460 1461 1461 1462 1462 1462 1462 1462 1462 1461 1461 1461 1461 1461 1462 1462 1463 1464 1467 1469 1472
1473 1472 1476 1469 1472 1455 1453 1450 1452 1464 1469 1473 1475 1476 1475 1474 1472 1470 1468 1467 1465 1463 1462 1461 1460 1459 1458 1456 1456 1456 1456 1457 1457 1458 1458 1458 1458 1457 1456 1455 1455 1455 1456 1457 1458 1458 1460 1462 1465
1470 1467 1466 1462 1474 1478 1470 1456 1463 1463 1469 1473 1474 1474 1473 1472 1470 1468 1467 1466 1464 1462 1461 1460 1459 1457 1456 1455 1454 1453 1453 1453 1454 1454 1453 1453 1453 1452 1451 1450 1449 1450 1450 1451 1453 1454 1455 1457 1460